Погода в Нижних Киги

Россия / Республика Башкортостан     55°32′39″N   58°29′45″E
темп.,
°C
ветер,
м/с
пор.,
м/с
влажн.,
%
обл.,
%
осадки,
мм/ч
давл.,
гПа
погр.,
м
19 мая, ср
ср1923:00+16всв5116740 0.0 1019411
02:00+14всв510760 0.0 1020599
05:00+11в512820 0.0 1021475
08:00+14в57660 0.0 1022769
11:00+18всв56452 0.0 10221069
14:00+21в56364 0.0 10211529
17:00+22вюв443395 0.0 10211723
20:00+18в35535 0.0 102190
20 мая, чт
чт2023:00+13вюв39635 0.0 1022154
02:00+12юв38685 0.0 1023135
05:00+10вюв22734 0.0 102312
08:00+15ююв23596 0.0 1023280
11:00+20ююв22435 0.0 10221104
14:00+23юв23324 0.0 10211555
17:00+25зюз13273 0.0 10191895
20:00+21св11455 0.0 101911
21 мая, пт
пт2123:00+15ююв22515 0.0 101912
02:00+14вюв11530 0.0 102010
05:00+12юв22575 0.0 102010
08:00+18ююв24480 0.0 1020208
11:00+23ююз45330 0.0 10181410
14:00+26ююз373072 0.0 10172822
17:00+23зюз6843100 0.0 10171257
20:00+19зюз2566100 0.0 1018137
22 мая, сб
сб2223:00+15ю227891 0.1 101911
02:00+14ю22853 0.0 101911
05:00+13ю228897 0.1 102020
08:00+17ююз247768 0.0 1020245
11:00+21зюз5754100 0.1 10201441
14:00+23зюз5741100 0.0 10202301
17:00+23з574136 0.0 10202070
20:00+19з486037 0.0 1021284
23 мая, вс
вс2323:00+14з117487 0.0 102111
02:00+13ююв2278100 0.0 102021
05:00+12с41096100 2.4 1023517
08:00+14зсз2388100 3.1 1024493
11:00+17ю0067100 3.3 1024959
14:00+20св1155100 0.0 1023980
17:00+21юз1151100 0.0 1023952
20:00+18в2267100 0.0 102216